Location: Guferjoch
(46.7462°N, 8.4506°E)
Time: 23:59:26
(UTC+00:00)

SeaSat 1 - Pass Details

Date: 14 July 2020
Orbit: 744 x 747 km, 108.0° (Epoch: 03 August)

Event Time Altitude Azimuth Distance (km) Brightness Sun altitude
Rises 02:13:47 0° 23° (NNE) 3,202 7.4 -12.5°
Reaches altitude 10° 02:16:07 10° 18° (NNE) 2,274 6.2 -12.3°
Maximum altitude 02:20:50 46° 306° (NW) 996 3.1 -11.8°
Enters shadow 02:24:48 14° 237° (WSW) 1,984 4.0 -11.3°
